Location: La Pernelle
(49.6188°N, 1.2999°W)
Time: 03:37:44
(UTC+00:00)

NOSS 3-2 (A) - Pass Details

Date: 20 October 2021
Orbit: 771 x 1437 km, 63.4° (Epoch: 21 November)

Event Time Altitude Azimuth Distance (km) Brightness Sun altitude
Rises 21:05:10 0° 315° (NW) 3,833 7.5 -38.3°
Reaches altitude 10° 21:07:42 10° 320° (NW) 2,968 6.7 -38.7°
Enters shadow 21:12:37 44° 347° (NNW) 1,607 4.7 -39.3°
